Wind_Speed
17 15 13 11 10 9 9 9 10 12 13 15 16 17 19 20 22 21 20 20 20 20 19 19 19 18 16 15 15 16 16 16 15 15 15 14 13 11 10 11 11 10 11 12 15 15 15 16 15 15 16 16 17 17 18 18 19 20 21 22 22 24 24 25 25 24 23 24 24 24 23 22 21 21 20 18 19 21 21 22 22 21 22 23 26 28
19 17 15 13 11 10 9 8 8 9 10 12 13 14 15 16 18 19 18 18 17 17 17 17 17 17 17 15 16 17 17 17 17 17 16 15 16 14 11 13 11 11 13 13 16 18 17 17 18 18 18 18 19 19 20 20 21 21 22 23 23 24 26 26 27 26 26 26 27 27 26 25 24 23 22 20 21 21 22 24 24 24 24 24 25 27
20 19 17 15 12 11 10 8 7 8 8 9 11 12 13 13 14 16 16 16 16 14 14 15 14 14 16 15 16 17 17 17 17 17 17 16 17 15 12 14 12 12 16 16 16 18 20 20 20 21 21 21 22 21 22 22 22 23 23 24 24 25 26 27 28 28 28 28 28 29 29 29 28 27 26 25 24 24 23 24 25 26 27 27 27 27
21 21 20 17 15 13 11 10 8 7 7 8 9 10 11 11 12 13 14 14 14 13 13 13 12 11 13 15 15 15 15 16 16 16 16 16 17 16 15 16 15 15 15 16 17 18 20 23 22 22 23 23 24 24 25 25 25 26 26 26 26 27 28 29 30 30 31 31 31 31 32 32 32 32 31 30 29 29 27 27 28 28 29 29 30 30
22 22 22 20 18 16 14 12 10 8 8 8 7 8 9 10 11 11 12 12 12 12 12 13 13 10 11 13 13 14 15 15 15 15 15 15 15 15 16 16 17 17 14 14 18 18 19 23 23 23 25 25 26 26 27 28 28 29 29 29 30 30 31 31 32 33 33 34 34 34 34 34 34 34 34 33 33 33 32 31 31 32 32 33 32 33
24 24 23 22 21 19 17 15 13 11 10 9 8 8 8 9 9 9 10 11 11 11 11 12 13 12 10 11 13 14 15 15 15 15 15 16 15 15 16 16 16 17 16 14 17 19 20 22 23 23 25 26 26 27 28 29 30 30 31 31 32 32 33 34 34 35 36 36 36 36 36 35 36 36 35 35 34 34 35 34 34 35 35 36 36 35
25 25 25 24 23 21 19 18 16 14 12 11 10 10 10 10 10 9 9 11 11 11 10 10 11 11 10 10 11 14 15 15 17 17 17 17 17 17 17 18 18 17 17 15 17 21 22 23 24 24 25 26 27 28 29 29 31 31 32 33 33 33 34 35 36 37 37 38 38 38 38 37 37 37 37 36 36 36 36 36 36 36 37 37 38 37
27 27 26 25 24 23 21 20 19 18 16 14 12 12 12 11 11 11 10 11 11 12 11 10 10 11 11 11 11 14 15 15 16 18 18 19 20 20 19 21 20 18 18 17 18 22 25 26 26 27 27 29 29 30 31 31 32 33 34 34 35 35 35 35 36 37 38 39 40 41 41 41 40 40 40 39 39 38 38 38 38 38 38 38 39 39
30 29 28 27 26 24 23 22 21 20 19 18 16 15 15 14 13 13 12 12 11 13 13 12 11 11 12 13 13 13 14 14 16 18 17 19 22 23 22 22 23 21 19 19 20 23 27 28 29 30 30 31 32 33 33 34 35 35 36 36 37 37 37 37 37 38 39 40 41 43 43 44 44 43 43 42 42 42 41 41 40 40 40 40 40 40
32 31 30 29 28 27 25 24 23 22 22 22 20 19 19 17 16 15 14 14 13 13 14 14 13 12 12 14 15 15 15 15 16 18 18 19 22 24 24 24 25 24 22 22 23 26 30 30 31 33 33 32 33 34 36 36 37 38 38 39 40 40 40 40 40 40 41 41 42 44 44 44 45 45 44 44 43 43 43 43 42 42 41 41 41 41
34 32 32 31 30 29 27 26 25 24 24 24 23 22 21 20 19 18 17 16 16 16 16 16 15 14 13 15 16 17 17 17 17 18 18 20 22 24 25 25 26 26 24 23 24 28 32 30 32 36 36 35 35 36 37 38 39 40 40 41 42 42 43 42 42 42 42 43 43 44 44 44 44 45 44 44 44 44 44 44 43 43 43 42 42 42
36 35 35 34 32 31 30 28 27 26 26 26 25 24 24 23 22 21 20 19 18 18 18 18 18 17 15 16 17 19 19 19 19 19 19 20 21 24 25 26 27 27 26 24 24 29 33 30 31 36 39 40 40 38 38 39 41 41 42 43 43 44 45 44 44 44 44 44 44 45 45 45 45 45 45 45 45 45 45 45 45 44 44 43 43 42
38 38 37 36 35 34 32 30 29 29 28 28 27 26 26 26 25 24 24 22 21 20 20 20 20 20 19 17 18 19 21 21 21 21 21 21 22 23 25 26 26 27 29 27 27 31 34 30 29 34 39 43 43 42 39 41 43 44 44 45 45 46 47 47 46 46 46 47 46 46 46 46 46 46 46 47 46 46 46 46 46 45 45 45 44 43
42 41 41 40 38 36 35 33 32 31 31 30 29 28 28 28 28 27 27 26 24 23 22 21 21 21 21 20 19 19 22 23 23 24 24 24 24 24 25 26 27 27 29 30 31 33 34 32 30 33 39 42 44 43 40 41 46 47 46 46 47 48 49 49 49 48 48 48 48 48 48 48 47 48 48 48 48 48 48 47 47 47 46 46 46 45
45 45 44 42 40 39 38 36 35 34 34 33 31 30 30 30 29 29 29 29 28 26 25 24 24 24 23 22 22 21 22 24 25 26 26 26 26 25 26 27 28 29 29 30 32 34 35 35 32 32 36 40 44 45 40 40 47 49 48 48 49 50 51 51 51 50 49 50 49 49 48 49 49 49 49 49 49 48 48 48 48 48 48 47 47 46
48 48 47 44 43 42 40 39 39 38 37 35 33 32 32 31 31 32 31 31 31 29 29 28 27 27 26 24 24 24 24 24 26 27 28 29 28 28 28 28 29 30 29 29 31 34 36 37 34 31 33 37 42 46 41 40 47 51 50 50 50 51 52 52 53 52 51 51 51 50 49 50 50 50 49 49 49 49 49 49 49 49 48 48 47 47
50 50 48 47 47 45 42 41 41 42 40 37 36 35 34 34 33 33 33 33 33 32 32 31 30 30 29 27 26 27 27 26 27 27 28 30 30 30 29 30 32 32 32 30 30 33 36 38 36 32 30 32 40 45 41 41 48 51 51 51 51 52 53 53 54 54 53 53 52 52 52 52 51 50 50 49 49 49 49 49 49 48 48 48 47 47
52 52 48 49 50 47 44 43 43 44 43 40 40 38 36 36 36 36 36 35 35 35 35 35 34 33 32 30 29 29 29 29 29 29 29 30 31 31 31 30 32 33 34 33 33 34 36 37 37 32 28 30 39 44 39 41 49 53 52 52 53 53 54 55 56 56 55 55 53 53 54 54 53 52 51 50 49 49 49 49 48 48 47 47 47 46
55 55 50 50 52 49 47 46 45 46 45 44 43 40 38 39 38 38 38 37 36 37 38 38 37 37 36 34 32 33 32 31 31 31 31 31 32 32 32 31 32 33 34 35 36 37 37 37 37 33 27 29 38 45 43 44 51 53 53 54 54 54 55 56 57 58 57 56 55 55 55 55 55 54 53 51 50 50 51 50 49 48 47 47 46 46
57 56 53 52 53 51 48 47 47 48 48 47 45 42 41 41 41 40 40 39 38 39 40 40 40 40 38 36 36 36 35 34 33 33 33 33 34 34 33 33 34 33 34 36 38 39 38 36 37 36 32 32 41 48 46 44 50 54 54 55 55 56 57 57 59 60 59 58 57 57 57 57 57 56 54 53 52 51 51 51 50 49 48 48 47 46
58 59 58 54 53 52 50 50 51 51 50 48 48 45 44 44 44 42 41 41 41 41 42 42 42 43 39 38 40 39 38 38 36 36 36 36 36 37 36 36 37 36 36 37 38 40 40 39 40 41 38 38 44 49 45 42 50 55 56 56 57 58 59 59 61 62 61 60 59 59 59 59 59 58 57 55 53 52 52 52 51 51 50 49 48 47
61 62 61 56 53 53 53 53 54 53 50 50 50 48 48 47 46 44 43 43 42 43 44 44 45 45 41 40 42 42 41 41 40 40 39 39 39 39 39 39 39 40 40 39 40 41 42 43 44 43 42 43 47 49 47 46 52 56 56 57 59 59 60 61 63 65 64 63 62 62 61 61 61 60 59 57 55 54 53 52 52 53 52 51 49 49
64 63 62 58 54 54 56 54 54 55 53 52 52 51 52 51 48 47 46 44 44 46 46 44 46 48 44 42 43 42 43 43 43 43 43 43 42 42 42 42 41 42 43 42 42 43 45 46 45 45 46 48 50 52 52 52 55 57 58 59 60 61 62 63 64 66 66 65 64 64 64 64 63 63 61 59 58 56 54 52 52 52 53 53 52 50
65 62 62 60 57 57 58 54 54 57 55 54 55 55 55 53 50 48 48 47 48 48 47 45 48 50 47 44 43 43 44 44 44 45 45 45 45 45 45 45 45 46 46 45 45 46 47 47 46 48 51 52 53 55 55 56 57 59 60 61 62 63 64 65 66 67 67 66 66 66 67 66 66 65 63 62 60 58 57 55 53 53 53 54 55 54
65 63 63 62 61 60 58 55 57 59 58 58 58 57 55 54 52 50 50 51 51 50 49 48 51 52 49 47 46 45 45 46 45 46 47 47 47 46 46 47 48 48 48 47 47 48 50 50 50 52 53 54 56 56 57 58 59 60 62 63 63 65 65 67 68 69 68 68 68 68 69 69 68 66 65 64 63 61 59 57 55 54 54 54 56 56
63 64 64 64 63 61 57 57 61 62 61 59 59 58 56 55 54 53 53 53 53 53 52 51 53 54 51 49 49 48 47 47 46 46 47 48 48 47 47 47 49 51 51 50 50 51 52 52 53 54 55 56 57 57 59 60 60 62 64 64 67 67 66 67 70 70 70 69 69 70 70 70 70 68 66 65 64 63 62 60 57 56 56 56 57 57
64 67 67 64 65 63 59 61 65 64 61 59 59 59 57 56 56 56 55 55 55 55 54 52 54 57 55 53 52 50 49 49 49 48 48 49 50 50 48 48 49 51 53 53 53 54 54 55 55 56 57 58 59 60 61 61 63 64 64 67 69 65 63 69 72 71 71 72 71 72 72 71 71 70 68 66 65 64 63 61 59 58 58 58 59 59
68 70 66 63 67 65 61 64 67 65 62 61 61 61 59 58 57 57 57 57 58 58 57 55 55 57 58 57 55 52 51 52 52 51 50 51 52 51 51 50 49 49 51 55 57 56 57 58 58 58 59 60 61 62 62 64 65 65 67 69 66 60 64 72 75 73 73 74 73 74 74 73 72 71 70 68 67 66 65 62 60 59 59 59 60 60
70 70 66 66 70 68 65 67 67 64 63 64 63 62 61 60 59 58 58 58 59 60 60 58 57 58 59 59 57 54 53 54 54 53 53 53 53 53 53 53 52 50 51 54 57 58 59 60 60 61 61 61 63 64 65 66 66 67 69 65 59 63 71 75 74 75 76 76 76 76 75 75 74 73 71 70 68 68 66 64 62 61 60 60 61 61
70 69 69 70 71 69 69 69 67 65 66 67 66 64 63 61 60 59 59 59 61 62 63 62 60 60 61 61 58 55 55 56 55 55 55 54 55 55 55 56 55 54 53 54 57 60 62 62 62 63 63 63 65 65 67 68 67 70 69 59 58 69 76 75 75 77 77 78 78 77 77 76 75 74 73 71 70 69 68 66 64 62 61 61 61 61
72 72 73 72 71 71 71 70 69 69 69 69 67 66 64 62 61 61 61 62 63 64 65 65 62 61 62 62 59 57 58 59 57 57 57 57 57 58 58 58 59 58 58 58 61 64 64 63 64 65 65 66 66 67 68 69 70 70 64 58 65 75 76 76 77 78 78 80 79 78 78 78 76 76 75 73 72 71 69 67 65 63 62 61 61 62
76 75 74 72 71 73 73 72 72 73 72 70 68 67 65 63 63 64 64 64 65 65 66 66 65 64 63 62 60 59 60 61 59 59 59 59 60 60 60 61 62 63 63 63 64 66 66 66 67 67 68 69 68 69 70 70 71 67 59 61 73 78 76 77 78 78 80 80 78 79 80 79 78 77 76 74 74 73 71 68 66 64 63 62 62 62
80 77 73 71 73 75 74 73 75 77 75 71 68 68 67 65 66 66 66 67 67 67 68 67 66 66 63 61 61 62 62 62 62 61 60 61 62 63 63 64 65 66 66 66 67 68 68 69 69 69 70 71 70 72 72 72 72 67 60 65 77 79 77 78 79 79 81 79 78 81 82 80 80 78 76 76 75 74 71 69 67 65 64 63 63 63
82 77 73 73 75 76 76 76 78 78 75 72 72 71 68 67 68 68 68 70 69 68 69 69 68 67 64 62 64 64 63 63 63 62 63 64 64 65 65 65 66 67 68 68 68 69 70 71 71 71 72 73 73 75 75 75 74 71 67 72 80 80 79 80 80 80 81 79 80 83 83 82 81 79 78 77 75 74 72 69 67 65 64 64 64 64
83 79 76 75 76 78 78 79 78 77 75 75 75 73 69 69 71 70 70 73 72 69 70 70 69 68 66 65 66 65 64 64 64 65 65 66 66 66 66 67 68 69 69 70 71 71 72 73 72 72 74 76 77 77 79 79 78 77 77 81 83 81 82 83 81 81 81 80 82 84 84 83 82 80 79 77 76 74 72 69 67 65 64 65 65 65
84 82 79 79 79 80 80 79 78 77 77 77 76 75 72 72 73 72 73 75 74 71 71 70 70 70 68 67 67 66 65 65 66 67 67 67 67 67 68 69 69 70 71 72 73 74 75 75 74 74 76 79 80 80 81 82 82 83 84 85 85 84 85 85 84 83 82 82 84 86 85 84 82 81 80 78 76 74 71 69 66 65 65 66 66 66
85 84 83 83 82 81 80 80 79 79 80 78 77 76 75 75 75 74 74 75 75 73 72 72 71 70 69 70 69 68 67 67 68 69 68 67 68 69 69 70 70 71 72 73 74 75 76 76 76 76 78 80 81 82 83 83 84 85 87 87 87 87 87 87 86 85 84 85 87 87 86 85 83 81 79 77 75 74 72 69 67 66 66 66 67 69
87 86 85 86 84 82 81 81 80 81 81 79 77 78 78 79 78 75 74 76 77 76 74 73 72 71 71 73 73 70 69 70 71 71 68 68 70 70 70 71 72 72 73 74 75 76 76 77 79 79 80 81 82 82 84 85 86 87 88 89 89 89 89 88 87 87 87 88 89 88 88 86 84 81 78 75 73 72 70 69 69 68 67 68 70 71
89 89 87 86 84 83 83 82 82 82 82 80 80 81 80 81 80 76 75 79 80 78 75 75 74 73 74 75 74 73 72 72 73 72 70 70 71 71 72 73 73 74 75 76 76 77 78 79 80 81 82 82 83 83 85 86 87 87 89 90 91 91 91 89 88 88 89 90 90 90 89 87 84 81 78 75 72 68 68 70 73 71 70 71 72 73
91 90 88 86 85 85 84 83 83 84 83 83 83 83 83 83 82 78 77 79 81 78 76 76 76 75 77 77 75 74 74 74 74 73 71 71 72 72 73 75 75 76 77 77 78 79 79 80 81 82 83 83 83 84 85 86 87 88 90 90 91 92 92 91 89 89 90 93 94 92 90 87 84 80 77 74 71 69 70 72 74 74 73 74 74 76
92 91 89 87 87 87 85 84 84 85 86 85 85 85 85 84 82 80 79 80 81 79 78 78 77 77 78 78 76 76 75 75 74 74 74 74 74 73 75 77 78 78 78 79 79 80 80 82 83 82 82 84 85 85 86 86 88 89 90 91 91 92 92 91 90 90 92 95 94 91 89 86 82 78 76 73 72 73 72 72 74 75 75 75 76 78
92 91 90 89 87 86 86 86 85 86 88 88 86 86 86 84 82 81 79 80 81 81 80 78 78 78 78 78 77 77 77 76 75 76 76 75 75 75 77 78 78 78 79 80 80 81 82 82 82 82 84 84 84 84 85 87 89 90 92 92 91 90 91 92 92 93 94 95 92 90 88 85 81 78 75 73 72 73 72 73 75 76 76 77 78 79
93 93 92 90 88 87 88 89 88 88 89 89 87 86 85 83 82 82 81 80 81 82 81 79 78 77 77 78 78 77 77 77 77 77 77 77 76 74 73 74 76 78 80 81 82 82 82 82 83 84 83 81 80 83 87 89 89 90 91 92 92 90 91 93 95 96 95 93 90 89 88 84 81 78 75 73 73 72 72 74 77 78 79 80 81 82
91 93 93 90 89 89 90 91 90 89 88 87 86 84 82 82 82 82 82 82 80 80 81 80 78 78 78 79 79 78 79 80 79 78 78 78 76 72 71 75 80 81 82 83 82 82 82 83 84 84 82 82 83 86 89 89 89 89 91 92 92 91 91 93 95 96 94 92 91 90 87 83 80 76 74 74 75 74 75 77 78 80 81 82 83 85
89 90 90 89 89 90 90 89 89 88 87 87 85 81 79 81 82 81 81 82 81 80 81 80 80 80 80 80 80 79 80 82 82 81 80 79 77 77 78 81 83 83 84 84 83 83 83 83 82 82 84 85 86 86 88 90 91 91 90 89 91 93 95 95 95 94 93 92 91 88 83 80 77 74 74 75 75 76 78 78 79 81 84 85 86 87
88 89 90 91 91 89 88 86 85 86 86 86 85 84 83 83 82 81 82 83 82 82 82 82 81 81 81 81 82 80 80 81 81 80 80 80 80 82 83 84 85 84 84 84 84 84 84 83 82 84 87 88 88 90 91 90 91 90 89 90 94 97 98 96 94 94 94 93 90 85 81 77 75 74 74 76 77 78 81 81 81 83 86 88 89 88
84 86 88 91 91 88 87 87 86 85 86 86 86 86 86 85 83 83 83 84 83 83 84 83 82 82 82 81 81 81 80 81 81 81 82 82 82 83 83 84 84 82 81 82 83 86 88 87 86 88 90 90 91 90 87 86 89 90 92 96 99 99 97 96 95 95 94 91 87 83 79 77 75 75 77 78 79 80 83 85 86 86 87 89 90 90
84 84 86 89 90 88 87 88 87 87 87 88 88 86 84 84 84 84 84 85 84 84 84 83 82 82 81 80 80 81 81 83 84 83 82 81 80 79 79 80 80 79 79 82 87 90 91 90 89 91 92 91 89 88 89 92 95 96 97 98 98 97 97 97 96 94 92 88 84 80 78 78 78 79 80 81 82 83 85 87 90 89 88 89 91 91
84 84 87 89 89 87 87 86 85 86 88 90 88 84 83 84 86 86 85 85 85 83 83 83 81 80 81 81 81 79 78 81 84 82 79 77 75 74 74 75 77 79 81 85 88 90 91 91 93 94 93 91 91 93 96 99 100 100 101 100 98 99 99 98 95 92 89 86 82 80 79 80 81 82 83 84 86 87 88 89 92 92 91 91 91 90
83 85 87 88 87 87 87 85 83 85 88 88 86 84 84 86 86 86 85 85 85 84 84 84 82 82 81 80 79 78 78 81 84 82 79 75 71 70 73 77 80 83 86 87 88 89 92 94 95 94 93 96 99 100 100 100 101 102 103 102 100 99 98 96 92 90 88 85 83 82 82 84 85 86 87 88 89 90 91 91 93 94 93 92 91 89
83 83 84 84 84 86 86 84 82 84 87 87 86 85 86 87 87 86 85 85 85 86 86 85 85 84 81 79 79 79 77 75 76 76 76 73 70 73 79 83 85 87 90 91 92 94 95 96 96 97 99 103 104 103 102 102 102 103 103 102 101 98 96 92 90 88 87 87 86 85 86 88 89 90 91 91 91 93 93 93 94 94 93 90 88 86
Wind_Direction
308 310 313 322 333 339 349 4 10 13 17 21 24 27 29 31 36 38 40 43 43 43 41 40 44 46 44 43 41 39 40 41 43 45 44 41 40 42 38 34 32 24 14 9 8 6 1 358 355 352 348 343 338 336 333 330 329 326 324 324 322 321 321 320 321 321 318 316 316 317 317 317 318 315 315 311 303 301 300 297 295 294 292 293 293 288
301 303 305 308 318 327 332 344 357 3 9 15 18 22 26 28 32 34 36 38 40 41 41 41 43 41 39 38 37 37 37 36 37 40 43 40 37 42 40 33 33 24 22 22 12 8 8 5 1 360 356 352 349 345 343 341 338 336 333 331 330 327 325 323 322 321 319 318 316 316 316 315 314 312 310 304 299 299 297 296 297 297 297 296 294 290
294 297 298 299 304 311 319 325 335 347 355 5 10 14 19 22 25 29 30 33 36 36 36 40 44 40 35 32 28 28 29 30 30 31 35 35 33 36 34 30 27 18 20 24 13 8 10 8 4 2 360 356 353 350 348 346 343 341 339 337 335 332 329 327 325 324 321 320 319 318 317 316 314 312 309 306 303 299 296 295 295 295 295 296 295 293
287 290 293 294 295 299 306 310 316 326 333 346 358 2 8 12 15 20 22 25 30 31 30 31 33 33 31 28 23 19 19 21 22 22 24 27 28 28 25 22 21 16 14 14 11 7 6 6 4 2 1 357 354 352 350 349 348 346 343 341 338 335 332 329 327 326 324 323 322 321 320 318 317 315 312 310 307 304 301 298 296 295 294 294 293 293
281 284 287 289 290 292 295 300 305 308 311 320 333 344 350 356 1 7 11 12 17 24 28 27 23 19 12 10 8 8 8 7 8 11 11 13 17 17 16 14 14 16 11 3 6 6 1 3 3 1 1 358 355 354 353 352 351 350 347 344 341 338 335 332 329 327 326 325 323 322 321 319 318 316 314 312 310 308 306 304 302 300 298 297 295 294
274 277 281 284 286 288 290 292 296 298 298 301 308 317 326 334 342 352 359 359 1 8 18 24 22 20 9 355 353 355 357 354 353 355 358 359 0 2 5 3 2 8 9 358 357 360 359 359 -0 359 359 357 355 353 352 352 352 351 349 347 344 340 337 333 330 328 326 324 322 320 319 317 316 314 313 312 311 309 308 306 305 304 302 301 300 298
269 271 275 278 281 284 286 288 289 291 291 292 295 299 304 312 320 331 341 345 348 351 1 11 14 17 11 357 354 353 352 350 348 348 348 349 349 350 353 355 354 353 357 357 351 352 355 356 356 357 356 355 354 353 351 351 350 350 349 348 345 342 338 334 331 328 326 323 321 319 317 315 314 312 311 311 310 309 308 307 306 305 304 303 302 301
264 267 270 272 276 279 282 284 285 287 289 290 290 289 292 296 301 310 319 326 335 338 342 353 359 2 358 353 356 355 351 350 349 346 346 346 347 346 345 349 351 347 344 346 346 348 350 352 353 353 352 352 352 352 351 350 350 349 348 347 346 343 340 335 332 328 326 323 321 319 318 316 315 314 313 312 312 311 310 309 307 306 305 303 302 300
259 262 265 267 270 274 277 280 283 285 287 289 290 289 289 289 291 295 300 306 317 324 328 336 345 349 349 345 345 347 347 346 346 346 346 346 347 348 347 347 348 348 343 339 338 342 346 348 349 349 348 348 348 349 350 349 348 348 347 346 344 344 341 338 334 331 328 325 323 321 320 318 317 316 315 314 313 312 311 309 308 306 305 303 301 299
255 258 261 263 265 268 271 275 279 281 283 285 287 288 289 290 291 292 294 297 302 309 317 323 328 336 342 340 337 338 341 341 342 346 347 345 345 347 348 348 347 346 344 343 339 338 342 344 345 346 344 342 343 345 346 346 346 345 345 344 343 342 342 339 336 333 331 328 325 323 321 319 317 315 314 312 310 309 308 307 306 305 303 302 300 299
252 255 258 259 260 263 266 270 273 275 278 280 282 284 286 289 292 294 296 297 298 301 306 312 317 322 329 333 333 332 334 335 336 341 344 343 342 346 347 347 349 346 342 343 341 338 339 340 341 342 340 339 340 341 341 343 343 343 342 342 341 341 340 339 337 335 332 330 327 325 322 320 317 314 312 309 307 306 305 304 303 302 301 300 299 298
251 252 254 256 257 259 262 265 268 270 272 275 277 279 282 285 287 291 294 296 298 299 302 305 308 311 317 323 327 327 327 328 330 334 337 338 340 343 345 345 347 348 344 338 336 337 338 337 339 340 337 337 338 336 337 340 340 340 340 339 339 339 339 339 337 335 333 331 329 326 324 321 319 316 313 310 308 306 304 303 302 301 300 299 298 298
250 250 252 254 254 256 258 260 263 266 268 270 273 275 278 281 283 286 289 292 295 297 299 301 303 305 307 312 317 320 321 323 326 328 330 334 336 338 341 343 342 344 345 340 335 337 339 338 337 334 333 335 336 333 333 339 339 337 337 338 337 337 337 338 337 335 333 331 330 328 326 323 321 318 315 313 310 308 306 304 302 301 300 299 298 297
248 248 250 251 252 254 255 257 259 262 264 266 269 272 275 278 280 283 286 288 291 294 296 298 299 300 301 304 308 312 315 318 321 324 326 328 331 333 335 338 339 338 340 339 335 335 339 338 330 327 332 335 334 331 330 335 336 334 334 335 335 335 335 336 336 334 333 331 330 329 326 324 322 320 317 314 312 310 307 305 303 301 300 299 298 297
248 247 248 249 251 253 253 254 256 259 261 263 267 270 272 274 278 281 284 286 288 291 294 296 297 298 298 299 302 305 309 312 316 319 322 324 326 329 331 332 335 336 336 337 335 334 336 336 327 322 330 335 333 329 327 330 332 331 331 333 333 333 333 334 334 334 332 331 330 329 327 324 323 320 318 315 313 311 308 305 303 302 300 299 298 298
247 247 248 249 251 252 253 253 255 257 259 262 265 267 269 272 275 278 281 283 286 288 290 292 294 295 295 296 298 301 303 307 311 314 318 321 322 325 328 328 329 332 332 333 334 332 332 334 327 319 326 332 328 326 324 325 327 328 328 330 331 331 331 332 333 333 332 331 330 329 327 325 323 321 318 316 313 311 308 306 304 302 301 300 299 298
248 248 248 249 250 251 252 252 253 256 258 261 263 265 268 271 273 276 279 282 284 286 288 289 290 292 294 295 297 298 300 303 306 310 314 317 319 322 325 326 326 327 328 329 330 328 328 331 328 319 320 324 323 324 322 321 323 324 325 328 329 330 330 330 331 332 332 331 330 329 327 325 324 322 319 316 313 311 308 306 304 303 301 300 299 298
249 249 247 248 250 250 251 251 253 255 257 259 261 263 267 269 272 275 277 280 283 286 287 287 288 289 291 295 297 297 298 299 302 305 309 312 315 317 320 322 323 324 324 324 324 325 325 328 326 320 314 316 322 324 319 315 320 322 323 325 327 328 330 330 330 331 331 331 330 328 326 326 325 323 321 318 314 311 309 307 305 303 301 299 298 297
248 249 247 247 250 250 250 252 253 255 256 257 259 262 264 267 270 273 275 279 281 284 286 286 287 287 288 293 296 296 296 297 299 302 305 308 310 312 315 318 319 320 320 319 320 322 323 324 324 320 311 310 319 323 318 313 317 320 321 324 326 327 329 329 329 330 330 330 329 327 326 325 325 324 322 319 316 312 310 308 306 304 302 300 298 298
246 249 248 247 249 250 250 252 253 254 255 256 258 260 262 264 267 269 273 276 279 281 283 285 286 285 287 292 293 293 294 296 298 300 302 305 307 309 311 313 314 316 317 317 318 320 320 320 321 320 314 308 312 319 319 312 313 318 321 323 325 326 328 329 329 329 329 329 327 326 325 325 324 324 323 320 317 314 311 309 307 305 303 302 301 300
246 248 248 247 249 251 251 251 252 253 255 257 258 259 261 262 264 267 270 273 276 278 280 282 283 283 286 290 290 291 294 296 298 300 301 302 304 307 309 310 312 313 314 314 316 317 317 317 317 317 314 310 310 315 316 308 310 317 321 322 324 326 327 328 328 328 328 328 326 325 324 324 324 323 323 321 319 316 313 311 309 306 305 304 303 301
245 247 248 247 248 251 251 251 252 254 255 256 258 259 260 261 263 265 267 270 274 276 278 280 282 283 285 287 288 291 294 296 298 299 300 301 303 305 307 309 310 310 311 312 312 315 315 314 314 314 312 311 311 313 313 310 312 318 320 321 324 325 326 327 327 327 327 327 326 324 324 323 323 323 323 321 319 316 314 311 309 308 306 305 303 302
244 246 248 248 248 250 252 252 254 255 255 256 258 259 259 260 261 264 267 270 272 274 276 279 282 283 283 284 287 291 292 293 296 297 299 301 303 305 306 307 308 308 309 310 311 312 313 312 312 312 312 312 311 313 314 314 316 318 320 321 323 324 325 326 326 326 327 327 325 324 323 323 323 323 322 321 319 317 314 312 309 307 306 305 303 302
246 246 248 249 248 249 252 253 254 255 256 257 257 258 259 260 260 263 267 269 271 273 275 278 280 281 282 284 286 288 289 290 293 295 298 300 302 304 306 306 307 306 306 308 309 310 312 311 310 310 311 311 312 313 314 315 317 318 319 321 323 323 324 325 325 325 326 326 324 323 323 322 322 322 322 321 319 317 314 312 310 307 306 304 303 302
246 246 248 249 249 248 251 253 255 255 256 256 257 257 259 261 262 263 265 267 269 272 274 276 278 279 281 283 284 284 286 288 291 293 295 298 300 302 304 305 306 305 305 306 308 309 310 310 309 309 310 311 312 313 314 315 317 318 319 320 321 322 323 323 324 325 326 325 324 323 322 322 322 322 321 320 319 317 314 312 310 308 305 303 302 302
247 247 247 249 250 249 250 253 254 254 254 256 258 259 260 262 264 264 264 266 268 271 273 275 278 279 280 281 282 284 286 287 289 291 293 296 298 299 301 302 304 304 303 304 306 308 308 308 308 309 310 310 311 312 313 314 316 317 319 319 320 321 321 322 323 324 324 324 323 323 322 322 321 321 320 319 318 316 314 312 310 308 305 304 302 302
248 247 246 248 250 250 249 252 254 254 255 257 259 260 261 262 263 264 265 267 268 269 271 273 277 280 281 281 282 284 286 287 288 289 291 294 295 297 298 299 301 303 302 302 305 305 305 307 308 308 309 309 310 311 312 313 315 317 317 318 319 319 318 320 323 322 322 323 322 322 322 321 321 320 319 319 317 315 313 312 310 308 305 304 302 302
248 248 248 248 251 250 250 251 253 254 256 258 259 260 261 262 263 265 266 267 268 269 271 272 273 276 279 280 281 284 287 288 289 290 291 292 294 295 296 296 299 301 298 298 302 303 304 306 307 307 308 309 309 311 311 313 315 316 317 318 318 316 315 319 321 321 321 322 322 322 322 321 321 320 319 318 316 314 313 311 309 307 305 304 302 301
248 250 249 249 250 251 250 251 253 255 257 258 259 260 261 262 263 264 266 267 268 269 270 271 272 274 277 279 281 284 287 288 289 290 290 291 293 294 294 294 296 297 295 295 299 302 303 305 306 307 307 308 310 310 311 312 313 314 317 317 313 312 315 318 319 320 321 321 321 321 322 321 321 320 319 317 316 315 313 311 309 307 305 303 302 302
248 250 250 249 249 251 251 252 254 255 256 257 258 259 260 262 263 265 266 267 267 268 269 270 271 273 276 278 280 284 286 287 288 289 289 290 291 292 293 293 294 295 294 294 296 299 302 303 304 305 306 307 309 309 309 311 312 314 316 313 308 311 316 317 318 319 320 320 320 321 321 321 320 319 318 317 316 314 312 310 308 306 305 303 303 302
246 248 248 248 249 251 252 252 254 254 255 256 257 259 260 262 264 265 265 266 266 267 268 269 270 272 274 277 280 283 284 286 288 288 288 289 290 290 291 292 292 294 294 294 296 299 300 302 304 304 305 306 307 307 308 309 311 314 313 307 308 313 315 316 317 319 319 319 319 320 321 321 320 319 318 317 316 314 312 310 308 306 305 304 303 303
245 246 247 249 250 250 251 252 253 254 254 255 256 259 261 262 263 264 264 265 266 267 268 269 270 271 273 276 280 282 283 285 287 288 287 288 289 289 290 291 293 294 295 297 298 299 301 302 303 303 304 305 305 306 306 307 311 314 308 303 310 314 314 316 317 318 318 318 318 320 321 320 319 318 317 316 315 313 311 309 308 306 305 304 303 303
245 246 247 249 250 251 251 251 253 254 254 255 256 257 258 260 261 263 264 265 265 266 268 269 270 271 273 277 279 281 282 285 287 287 286 287 287 289 290 292 294 295 297 298 299 299 300 301 302 302 302 303 303 305 305 307 311 311 303 302 310 314 314 315 316 317 318 317 317 320 320 319 318 317 316 316 314 312 311 309 307 307 305 304 304 304
247 247 247 249 250 251 251 251 252 254 255 256 256 256 258 259 260 262 263 264 265 266 267 269 270 272 274 276 278 279 282 284 286 285 285 285 287 289 290 292 293 295 296 297 298 298 298 299 300 301 302 302 303 304 305 307 310 308 303 306 311 313 314 315 316 317 317 315 317 319 319 318 318 316 315 315 313 311 310 308 307 306 305 304 304 304
247 248 247 248 250 251 251 252 252 254 256 257 258 257 258 259 260 261 263 264 265 265 267 269 270 272 274 275 277 279 281 283 283 283 283 285 287 288 290 291 293 294 295 296 296 296 297 298 300 301 302 302 303 305 306 307 308 308 307 309 312 312 314 315 315 317 316 315 317 318 318 317 317 315 315 314 313 311 309 307 306 305 305 305 305 305
247 247 247 247 248 249 251 252 253 254 255 256 258 258 258 259 260 261 262 263 265 266 267 269 270 272 273 275 276 278 280 281 281 281 283 285 285 286 289 290 292 293 294 295 295 296 297 298 300 301 301 302 303 305 306 307 308 308 309 311 312 312 314 314 315 316 315 315 316 317 317 316 316 315 314 313 311 309 307 306 305 305 305 306 306 307
246 246 246 246 246 248 250 251 252 253 254 255 257 259 259 258 258 259 261 264 265 266 267 269 270 272 274 275 275 276 278 279 279 280 282 283 284 286 288 289 290 292 293 293 294 295 296 298 299 300 300 301 303 304 305 307 307 308 309 310 311 312 313 314 315 315 314 314 316 316 316 315 315 314 313 312 310 308 307 306 305 305 306 307 308 308
244 245 245 246 246 247 249 251 251 252 253 255 256 258 258 259 259 259 262 264 265 266 267 269 271 272 274 274 275 276 277 277 278 279 281 282 283 285 287 288 289 290 291 292 293 294 295 297 298 299 299 301 302 304 305 306 306 307 308 309 310 311 312 313 314 314 314 314 315 315 315 315 314 313 312 311 310 308 306 306 306 307 308 308 309 310
243 244 245 246 247 247 248 250 251 253 253 254 255 256 257 259 259 260 261 263 265 266 268 269 271 272 272 273 274 276 277 276 278 280 281 281 282 285 286 287 288 289 290 291 292 293 295 296 297 298 299 300 302 303 304 305 305 306 307 308 309 310 311 313 313 312 313 314 314 314 314 314 314 313 312 310 308 307 307 308 308 309 309 309 309 311
242 243 244 245 247 247 248 249 251 252 253 253 253 255 255 257 259 259 260 262 264 266 267 268 270 271 272 272 274 275 276 277 278 280 280 281 282 284 285 286 287 288 289 291 292 293 295 295 296 297 298 300 301 302 303 304 304 305 306 307 308 309 310 311 312 311 312 313 314 314 313 313 313 312 311 309 307 306 308 308 308 308 309 309 310 312
241 243 244 245 246 247 248 249 250 251 252 252 253 255 256 257 258 259 260 262 264 265 266 267 269 270 271 273 274 275 276 277 278 279 280 281 282 283 285 286 287 288 289 290 292 293 294 295 295 296 297 299 300 300 301 302 303 304 305 305 307 308 308 309 310 310 311 312 313 312 312 312 311 310 309 307 306 306 307 307 307 307 308 309 311 312
241 242 243 244 245 247 248 249 249 250 252 252 253 255 256 258 259 260 261 262 264 265 266 267 269 271 272 274 274 275 276 276 277 278 279 281 283 284 285 286 286 288 289 291 292 293 294 294 294 295 297 298 298 299 301 302 302 303 303 304 305 306 307 308 309 309 310 311 311 310 310 310 309 308 307 305 303 305 306 307 307 307 308 309 311 312
241 242 243 244 245 246 247 248 248 249 251 253 254 256 257 258 260 261 261 262 264 266 267 268 269 270 272 273 274 275 275 276 277 278 280 282 284 285 284 284 286 288 290 291 292 292 292 292 294 295 296 296 297 299 300 301 302 303 303 303 305 305 306 307 308 309 309 310 309 309 309 309 307 306 305 303 303 305 306 306 307 307 308 310 310 311
241 243 244 245 245 246 247 249 250 251 252 254 255 256 257 258 259 260 261 262 264 266 267 268 268 269 270 272 273 274 275 276 278 279 280 283 284 283 282 284 286 288 290 290 291 290 290 292 293 294 295 296 297 298 299 300 301 302 302 303 304 304 305 306 307 307 308 308 307 307 307 306 305 305 304 303 304 305 305 306 306 307 308 309 310 311
242 243 244 245 245 246 247 249 251 251 252 253 254 255 256 257 258 260 262 263 264 264 265 267 268 268 269 271 272 274 275 276 278 279 281 282 282 281 283 285 287 288 289 289 288 288 290 292 293 293 295 296 297 297 297 298 299 301 302 301 300 301 303 304 304 305 305 305 305 305 304 303 303 303 302 302 303 304 304 305 306 306 308 309 310 311
242 243 244 245 245 245 246 248 250 250 251 252 253 254 256 257 258 259 261 262 263 263 265 266 267 268 269 271 272 273 275 276 278 280 281 281 281 282 284 286 287 287 288 288 288 289 290 291 292 293 295 295 296 296 297 297 298 300 300 298 298 299 301 302 303 303 304 303 303 303 302 302 302 302 301 302 303 304 304 305 306 307 308 309 310 310
241 241 242 244 245 245 246 247 249 250 252 252 252 253 255 257 258 258 260 261 262 263 264 266 267 269 270 271 272 273 274 275 277 278 280 280 281 282 284 285 286 286 286 287 288 289 291 291 292 293 294 294 295 295 295 295 296 296 296 296 298 299 300 301 302 302 302 302 302 302 302 302 302 302 302 302 303 304 305 306 306 307 308 309 309 310
241 242 243 244 245 246 246 247 248 249 251 252 253 254 255 257 258 258 259 260 261 262 264 266 267 269 269 270 271 273 274 275 276 278 279 280 281 283 284 285 284 283 285 286 287 289 290 291 292 292 291 291 292 292 292 293 294 294 295 296 298 299 299 300 301 302 301 301 301 301 301 302 302 302 303 304 304 305 306 306 306 306 307 308 309 310
240 242 243 244 245 246 246 247 248 249 251 252 253 254 255 256 257 258 258 259 261 263 264 265 266 267 269 270 272 273 274 275 277 278 278 279 281 284 284 282 281 282 285 286 287 288 289 290 291 291 290 290 291 292 292 294 294 295 296 297 298 298 299 300 301 301 300 300 300 301 301 302 302 303 303 304 305 305 305 305 306 306 307 308 308 309
240 240 243 244 245 246 247 247 248 249 251 252 252 253 254 255 256 258 259 260 261 262 263 264 265 266 268 270 271 273 275 277 279 278 276 278 280 281 280 279 280 282 284 285 286 286 287 288 289 289 289 290 292 293 293 294 294 295 296 297 297 298 299 300 300 300 300 300 300 302 302 302 302 303 303 304 304 304 305 305 305 306 307 307 308 309
240 241 243 245 247 247 247 247 248 249 251 252 252 252 253 255 256 257 258 260 260 261 262 263 265 266 268 269 270 273 275 278 277 275 275 277 277 276 276 278 280 281 283 284 285 285 286 287 288 288 289 291 292 293 293 294 294 295 295 296 297 298 299 299 299 299 299 300 301 302 302 302 302 303 303 303 304 304 304 304 305 305 306 307 308 308
Height
11009 11010 11010 11010 11010 11009 11009 11008 11007 11006 11005 11004 11003 11002 11000 10998 10997 10997 10996 10995 10994 10994 10993 10991 10990 10989 10989 10989 10988 10988 10987 10987 10986 10986 10985 10983 10983 10982 10981 10981 10980 10980 10979 10978 10977 10975 10974 10973 10971 10970 10969 10968 10967 10966 10965 10964 10963 10961 10960 10959 10957 10955 10953 10952 10951 10951 10950 10949 10946 10945 10944 10943 10942 10941 10939 10937 10934 10931 10930 10930 10929 10927 10926 10925 10923 10921
11008 11008 11009 11009 11009 11009 11008 11008 11007 11006 11006 11005 11004 11003 11002 11000 10999 10998 10997 10996 10995 10995 10994 10993 10992 10991 10990 10990 10989 10989 10988 10988 10987 10986 10985 10984 10983 10982 10982 10981 10980 10980 10979 10978 10978 10976 10974 10972 10970 10968 10967 10966 10964 10963 10962 10961 10960 10959 10957 10956 10954 10952 10950 10949 10948 10947 10946 10945 10943 10942 10941 10940 10939 10938 10937 10936 10934 10931 10929 10927 10925 10924 10922 10921 10921 10919
11006 11006 11007 11008 11008 11008 11007 11007 11007 11006 11005 11005 11004 11003 11002 11001 11000 10999 10998 10997 10997 10996 10995 10994 10993 10992 10991 10991 10990 10989 10989 10988 10987 10986 10986 10985 10984 10983 10982 10982 10981 10980 10978 10977 10978 10976 10973 10971 10968 10966 10965 10963 10962 10961 10960 10959 10958 10957 10955 10954 10952 10950 10948 10946 10945 10943 10942 10941 10939 10937 10936 10935 10934 10934 10933 10932 10931 10930 10928 10926 10923 10922 10920 10919 10918 10917
11005 11005 11005 11006 11006 11006 11006 11006 11006 11005 11005 11004 11004 11003 11002 11001 11000 11000 10999 10998 10998 10997 10996 10995 10994 10993 10992 10991 10990 10989 10988 10988 10987 10986 10986 10985 10984 10983 10982 10982 10981 10979 10977 10976 10976 10974 10971 10969 10967 10965 10964 10962 10960 10959 10958 10957 10956 10954 10953 10951 10950 10948 10946 10944 10942 10940 10938 10936 10935 10933 10931 10930 10929 10927 10927 10926 10925 10924 10923 10922 10920 10919 10918 10916 10915 10914
11003 11003 11003 11004 11004 11005 11005 11005 11005 11004 11004 11004 11003 11002 11002 11001 11000 11000 11000 10999 10998 10997 10996 10995 10994 10993 10992 10992 10991 10990 10988 10987 10986 10986 10985 10984 10984 10983 10982 10981 10980 10978 10977 10975 10974 10973 10971 10968 10966 10964 10963 10961 10959 10957 10956 10954 10953 10952 10950 10948 10947 10945 10943 10941 10938 10936 10934 10932 10930 10928 10927 10926 10924 10923 10921 10920 10919 10918 10917 10916 10915 10913 10912 10911 10911 10909
11001 11001 11001 11001 11002 11002 11002 11003 11003 11003 11002 11002 11002 11002 11001 11001 11000 11000 11000 10999 10998 10997 10996 10995 10994 10994 10994 10993 10991 10989 10988 10987 10986 10985 10984 10983 10982 10981 10980 10979 10978 10977 10976 10973 10972 10972 10970 10967 10965 10963 10961 10959 10957 10956 10954 10952 10951 10949 10948 10946 10944 10942 10940 10938 10935 10933 10931 10929 10927 10925 10924 10923 10921 10919 10917 10916 10914 10912 10911 10909 10908 10907 10905 10904 10903 10902
10999 10999 10999 10999 10999 11000 11000 11000 11000 11000 11000 11001 11001 11000 11000 11000 10999 10999 10999 10998 10997 10997 10996 10995 10995 10994 10994 10994 10992 10989 10987 10986 10985 10983 10982 10982 10981 10980 10979 10977 10976 10975 10974 10972 10971 10970 10968 10965 10963 10961 10959 10958 10956 10954 10952 10950 10949 10947 10945 10943 10941 10939 10937 10935 10933 10930 10928 10926 10924 10922 10921 10919 10918 10915 10913 10911 10910 10908 10906 10904 10903 10901 10900 10898 10897 10896
10997 10997 10997 10997 10997 10997 10997 10997 10998 10998 10998 10998 10999 10999 10999 10999 10998 10998 10998 10997 10996 10995 10995 10995 10994 10993 10992 10992 10990 10989 10987 10986 10985 10983 10981 10980 10979 10978 10977 10975 10974 10973 10972 10971 10970 10968 10966 10963 10961 10959 10957 10955 10953 10952 10950 10948 10946 10944 10942 10940 10938 10937 10935 10933 10930 10928 10926 10923 10920 10918 10916 10914 10912 10910 10907 10905 10903 10902 10900 10898 10897 10896 10894 10893 10891 10890
10995 10994 10995 10995 10994 10994 10994 10994 10995 10995 10994 10994 10995 10996 10996 10997 10997 10997 10996 10996 10996 10994 10993 10993 10993 10992 10991 10989 10988 10988 10987 10986 10985 10983 10981 10979 10978 10976 10975 10973 10972 10971 10970 10968 10968 10966 10964 10961 10959 10956 10954 10953 10951 10949 10947 10945 10943 10942 10940 10937 10935 10934 10932 10930 10927 10925 10922 10920 10917 10914 10911 10908 10905 10903 10901 10898 10896 10895 10894 10892 10891 10890 10889 10888 10886 10885
10991 10992 10992 10992 10992 10992 10992 10992 10992 10992 10991 10991 10992 10992 10993 10994 10994 10994 10994 10994 10994 10993 10992 10991 10991 10990 10989 10987 10986 10986 10985 10984 10983 10982 10980 10979 10977 10975 10973 10972 10970 10968 10967 10965 10964 10963 10961 10959 10956 10954 10952 10951 10949 10947 10945 10943 10941 10939 10937 10934 10932 10930 10928 10926 10923 10921 10918 10916 10913 10910 10907 10905 10902 10900 10897 10895 10893 10891 10889 10888 10886 10885 10884 10883 10881 10880
10988 10989 10989 10989 10990 10989 10989 10990 10990 10990 10989 10989 10989 10990 10990 10990 10991 10991 10991 10991 10991 10990 10989 10989 10989 10988 10987 10986 10985 10984 10982 10982 10982 10981 10980 10978 10977 10974 10972 10971 10969 10967 10965 10963 10962 10961 10959 10956 10954 10952 10950 10948 10947 10945 10943 10941 10938 10936 10934 10932 10930 10927 10925 10922 10920 10917 10915 10912 10910 10907 10904 10902 10900 10898 10895 10893 10890 10888 10886 10884 10882 10881 10879 10878 10876 10875
10985 10986 10985 10986 10986 10986 10987 10987 10987 10987 10987 10987 10987 10987 10987 10987 10987 10987 10988 10988 10988 10988 10987 10986 10986 10986 10985 10984 10983 10982 10981 10980 10979 10979 10978 10977 10975 10973 10972 10970 10968 10966 10964 10962 10961 10960 10957 10953 10951 10949 10948 10946 10943 10942 10940 10938 10936 10934 10932 10929 10927 10924 10922 10919 10916 10914 10911 10908 10906 10903 10901 10899 10896 10894 10891 10889 10886 10884 10882 10880 10878 10876 10874 10873 10871 10869
10981 10981 10982 10982 10983 10983 10984 10984 10984 10984 10984 10984 10984 10984 10984 10984 10984 10984 10984 10985 10985 10985 10985 10984 10984 10983 10983 10982 10982 10980 10979 10978 10977 10976 10976 10975 10974 10972 10971 10969 10967 10965 10963 10960 10959 10958 10955 10951 10948 10947 10947 10943 10940 10938 10936 10934 10932 10931 10929 10927 10924 10921 10918 10916 10913 10910 10907 10904 10901 10899 10896 10894 10891 10889 10886 10884 10881 10879 10877 10874 10872 10870 10868 10867 10865 10864
10976 10977 10977 10977 10979 10980 10980 10981 10981 10981 10981 10981 10981 10981 10981 10981 10980 10980 10981 10981 10981 10981 10982 10982 10981 10981 10980 10980 10980 10979 10977 10975 10974 10974 10973 10972 10972 10971 10969 10967 10965 10964 10961 10959 10956 10955 10953 10950 10947 10945 10944 10940 10937 10935 10933 10930 10929 10928 10926 10924 10921 10918 10915 10912 10910 10907 10903 10900 10898 10895 10892 10889 10887 10884 10881 10878 10876 10873 10871 10868 10866 10864 10862 10861 10859 10858
10971 10972 10972 10973 10975 10976 10977 10978 10978 10978 10978 10977 10978 10978 10978 10978 10977 10977 10977 10977 10977 10977 10978 10978 10978 10978 10978 10977 10977 10976 10975 10974 10972 10971 10970 10969 10969 10969 10967 10965 10963 10962 10960 10958 10955 10951 10951 10950 10947 10945 10942 10936 10933 10932 10930 10927 10925 10925 10923 10921 10918 10915 10911 10908 10906 10903 10900 10897 10895 10892 10889 10885 10882 10879 10876 10873 10870 10868 10865 10863 10860 10858 10856 10855 10853 10851
10964 10966 10967 10969 10971 10971 10973 10974 10974 10974 10973 10974 10975 10975 10974 10974 10974 10973 10973 10973 10973 10973 10973 10974 10974 10974 10974 10974 10974 10973 10973 10972 10971 10969 10967 10966 10965 10966 10965 10963 10961 10959 10958 10957 10954 10950 10949 10948 10946 10942 10939 10935 10932 10931 10929 10925 10923 10922 10921 10918 10915 10912 10908 10905 10902 10899 10897 10893 10890 10888 10885 10882 10878 10875 10872 10869 10866 10863 10860 10857 10855 10852 10850 10848 10847 10845
10958 10960 10963 10965 10965 10967 10969 10970 10970 10969 10969 10971 10971 10970 10971 10970 10970 10969 10969 10968 10968 10968 10969 10969 10970 10970 10970 10970 10970 10970 10969 10969 10968 10967 10965 10964 10962 10962 10962 10961 10957 10955 10954 10953 10953 10951 10947 10945 10942 10939 10936 10933 10932 10929 10926 10923 10922 10921 10918 10916 10913 10909 10905 10902 10898 10895 10892 10889 10886 10882 10880 10877 10874 10871 10868 10865 10862 10858 10856 10853 10850 10848 10845 10843 10841 10839
10952 10953 10959 10960 10959 10962 10964 10965 10966 10964 10965 10967 10966 10966 10967 10966 10966 10965 10964 10964 10964 10963 10964 10964 10965 10965 10965 10966 10966 10966 10965 10965 10965 10964 10964 10962 10961 10960 10960 10959 10956 10953 10950 10949 10950 10949 10945 10941 10938 10936 10933 10930 10929 10926 10924 10923 10921 10919 10916 10913 10909 10906 10902 10898 10894 10891 10888 10885 10881 10878 10874 10872 10869 10866 10863 10860 10857 10854 10851 10848 10845 10843 10840 10838 10835 10833
10945 10946 10954 10955 10953 10957 10959 10960 10961 10960 10960 10962 10961 10963 10964 10962 10962 10961 10959 10960 10960 10959 10959 10959 10959 10960 10960 10961 10962 10961 10961 10962 10961 10961 10961 10960 10959 10958 10957 10957 10956 10953 10950 10947 10946 10945 10942 10938 10935 10934 10932 10928 10925 10924 10923 10922 10920 10916 10912 10909 10906 10902 10898 10894 10890 10887 10884 10881 10877 10873 10870 10867 10863 10861 10858 10855 10851 10848 10845 10842 10839 10837 10834 10832 10830 10827
10940 10941 10947 10949 10948 10951 10955 10955 10956 10955 10954 10956 10957 10958 10959 10958 10958 10957 10956 10956 10956 10955 10954 10954 10954 10954 10956 10957 10956 10956 10957 10957 10958 10957 10957 10956 10955 10955 10954 10953 10953 10951 10949 10945 10941 10940 10938 10936 10934 10933 10931 10926 10923 10922 10922 10921 10918 10913 10908 10904 10901 10897 10893 10890 10886 10883 10880 10876 10873 10869 10865 10862 10859 10855 10853 10849 10846 10842 10838 10835 10832 10830 10827 10824 10822 10820
10937 10936 10938 10943 10944 10946 10950 10950 10949 10948 10950 10951 10952 10954 10954 10953 10953 10954 10954 10953 10952 10952 10950 10950 10949 10948 10952 10953 10950 10951 10952 10951 10953 10953 10952 10951 10951 10950 10949 10949 10947 10946 10945 10942 10939 10936 10934 10932 10931 10929 10927 10924 10921 10920 10920 10919 10914 10909 10904 10899 10895 10892 10888 10884 10880 10877 10875 10872 10868 10864 10860 10857 10853 10850 10846 10843 10840 10836 10832 10828 10824 10822 10820 10817 10814 10812
10930 10929 10930 10937 10941 10941 10942 10943 10943 10944 10947 10947 10946 10949 10949 10948 10949 10950 10950 10949 10949 10947 10945 10945 10943 10943 10948 10949 10945 10946 10946 10945 10946 10946 10946 10945 10945 10945 10943 10943 10942 10940 10940 10938 10936 10933 10930 10928 10926 10923 10921 10919 10916 10916 10916 10913 10908 10903 10898 10893 10889 10886 10882 10879 10874 10870 10868 10865 10861 10858 10854 10851 10847 10844 10840 10837 10833 10830 10826 10823 10818 10814 10811 10809 10807 10804
10922 10924 10925 10930 10936 10935 10934 10938 10939 10938 10940 10942 10942 10943 10942 10943 10945 10945 10945 10946 10945 10942 10941 10942 10938 10937 10941 10944 10942 10942 10941 10940 10940 10939 10939 10939 10938 10938 10937 10937 10937 10934 10934 10933 10931 10928 10925 10922 10920 10917 10915 10913 10911 10909 10908 10905 10900 10896 10892 10888 10884 10879 10876 10874 10870 10865 10861 10858 10854 10851 10847 10844 10841 10838 10834 10830 10827 10823 10819 10817 10813 10809 10804 10800 10798 10797
10915 10919 10920 10923 10928 10928 10928 10933 10934 10932 10934 10936 10935 10935 10935 10937 10940 10941 10940 10941 10939 10937 10938 10938 10934 10931 10935 10938 10938 10938 10936 10935 10936 10934 10934 10933 10932 10932 10930 10930 10930 10928 10928 10927 10925 10923 10920 10917 10915 10912 10909 10908 10905 10902 10899 10896 10893 10888 10885 10881 10878 10874 10870 10867 10865 10861 10857 10852 10848 10844 10840 10837 10834 10830 10827 10823 10819 10816 10812 10810 10807 10803 10799 10794 10790 10788
10909 10913 10914 10916 10919 10922 10925 10928 10927 10925 10927 10928 10927 10929 10931 10932 10934 10937 10936 10935 10934 10933 10933 10934 10929 10926 10930 10932 10931 10933 10932 10931 10932 10930 10929 10929 10928 10927 10926 10924 10922 10921 10921 10921 10920 10918 10915 10912 10910 10908 10905 10902 10899 10895 10892 10889 10886 10882 10878 10875 10872 10869 10865 10861 10858 10855 10852 10848 10843 10838 10834 10830 10827 10824 10820 10816 10811 10808 10805 10803 10800 10796 10793 10788 10784 10781
10905 10907 10908 10910 10912 10916 10921 10921 10917 10916 10919 10921 10923 10924 10927 10928 10928 10930 10930 10930 10930 10928 10928 10929 10924 10920 10924 10926 10925 10927 10927 10926 10927 10926 10924 10923 10923 10923 10922 10920 10917 10915 10914 10914 10914 10913 10911 10908 10905 10902 10899 10896 10892 10889 10886 10883 10880 10876 10872 10869 10866 10863 10859 10856 10852 10849 10846 10842 10838 10833 10828 10824 10820 10817 10814 10810 10805 10800 10797 10795 10792 10789 10785 10781 10777 10774
10899 10897 10901 10906 10905 10909 10915 10913 10908 10909 10913 10917 10918 10918 10920 10923 10923 10922 10923 10925 10924 10922 10923 10924 10921 10915 10915 10918 10919 10921 10922 10921 10921 10921 10920 10918 10917 10917 10917 10916 10914 10911 10907 10906 10907 10907 10905 10902 10899 10896 10893 10890 10886 10883 10880 10877 10874 10871 10867 10864 10860 10857 10853 10850 10847 10844 10840 10836 10832 10827 10823 10818 10814 10810 10807 10804 10799 10795 10790 10788 10785 10781 10777 10773 10770 10767
10890 10887 10896 10902 10898 10901 10908 10904 10901 10904 10909 10910 10911 10912 10914 10916 10917 10917 10918 10919 10917 10916 10917 10918 10917 10912 10908 10909 10912 10915 10916 10915 10914 10914 10914 10913 10911 10911 10911 10911 10911 10909 10904 10901 10900 10899 10896 10894 10892 10889 10887 10884 10880 10877 10874 10871 10868 10866 10862 10858 10855 10852 10849 10845 10840 10837 10832 10828 10824 10820 10816 10812 10808 10804 10800 10796 10792 10787 10783 10781 10778 10774 10770 10766 10762 10759
10882 10883 10892 10894 10889 10894 10898 10896 10896 10900 10902 10902 10903 10906 10907 10909 10911 10911 10912 10913 10911 10909 10909 10910 10910 10908 10904 10903 10906 10910 10911 10909 10907 10907 10907 10906 10905 10904 10904 10904 10905 10905 10901 10896 10894 10892 10889 10887 10884 10881 10879 10877 10873 10870 10867 10864 10862 10860 10857 10854 10851 10847 10843 10839 10834 10829 10825 10820 10816 10812 10809 10805 10800 10797 10793 10789 10785 10780 10775 10772 10769 10766 10762 10758 10755 10751
10877 10879 10882 10882 10883 10887 10889 10889 10892 10894 10894 10894 10896 10899 10900 10902 10904 10905 10906 10907 10905 10902 10901 10902 10903 10902 10898 10898 10901 10904 10904 10902 10901 10900 10899 10899 10898 10897 10897 10896 10897 10898 10896 10893 10889 10886 10884 10882 10878 10874 10872 10870 10867 10863 10860 10858 10856 10855 10853 10851 10847 10842 10837 10832 10827 10822 10818 10813 10808 10804 10801 10797 10793 10789 10785 10781 10777 10772 10768 10764 10761 10758 10755 10751 10747 10743
10871 10871 10870 10873 10878 10880 10880 10883 10884 10885 10885 10886 10889 10892 10894 10896 10898 10898 10899 10899 10897 10896 10893 10893 10896 10896 10893 10893 10896 10898 10896 10894 10895 10894 10892 10892 10891 10890 10890 10888 10888 10889 10889 10887 10884 10880 10877 10875 10872 10868 10864 10862 10861 10858 10855 10852 10851 10850 10849 10846 10841 10835 10831 10826 10821 10816 10811 10806 10801 10797 10794 10790 10785 10781 10777 10773 10769 10765 10761 10757 10753 10750 10747 10743 10739 10735
10861 10862 10864 10869 10872 10870 10872 10875 10876 10874 10875 10879 10884 10886 10887 10889 10890 10889 10890 10890 10889 10888 10886 10886 10889 10889 10888 10890 10891 10891 10888 10886 10887 10886 10885 10884 10883 10882 10882 10880 10879 10878 10878 10877 10875 10871 10868 10866 10864 10861 10858 10856 10854 10852 10850 10847 10847 10849 10848 10841 10834 10829 10824 10819 10814 10810 10805 10799 10794 10790 10787 10783 10778 10774 10769 10766 10761 10757 10753 10749 10745 10742 10739 10735 10732 10728
10850 10856 10862 10864 10862 10862 10865 10867 10866 10863 10865 10873 10878 10878 10880 10882 10881 10881 10882 10881 10881 10881 10879 10880 10881 10880 10883 10887 10885 10883 10882 10879 10879 10878 10877 10877 10875 10874 10873 10872 10870 10868 10867 10866 10865 10862 10859 10857 10856 10853 10850 10848 10846 10843 10842 10840 10843 10848 10844 10834 10826 10821 10817 10812 10808 10804 10798 10792 10788 10784 10779 10775 10771 10767 10762 10758 10754 10749 10745 10741 10737 10734 10730 10727 10724 10721
10843 10852 10858 10857 10853 10854 10856 10856 10855 10855 10859 10866 10868 10869 10874 10875 10873 10875 10874 10870 10872 10875 10872 10873 10874 10874 10878 10881 10878 10877 10876 10873 10871 10869 10868 10868 10868 10866 10865 10864 10862 10860 10859 10857 10856 10854 10852 10849 10848 10846 10842 10839 10837 10834 10832 10830 10833 10837 10833 10823 10816 10812 10807 10804 10801 10797 10791 10786 10782 10778 10772 10768 10764 10759 10755 10751 10746 10741 10737 10733 10729 10726 10722 10718 10716 10713
10836 10843 10849 10848 10845 10844 10845 10845 10847 10850 10855 10858 10858 10861 10868 10867 10864 10868 10867 10861 10863 10867 10866 10866 10867 10868 10871 10873 10871 10871 10871 10867 10864 10862 10861 10861 10860 10859 10857 10856 10854 10852 10850 10849 10847 10846 10844 10841 10840 10839 10834 10829 10827 10825 10822 10820 10820 10820 10816 10811 10806 10802 10798 10795 10792 10790 10784 10778 10775 10771 10765 10761 10757 10752 10748 10743 10738 10733 10729 10725 10721 10718 10714 10711 10707 10704
10826 10832 10836 10837 10836 10835 10836 10839 10842 10844 10846 10848 10849 10853 10859 10858 10857 10859 10858 10853 10855 10859 10860 10860 10860 10861 10864 10865 10864 10864 10864 10861 10857 10854 10855 10856 10853 10852 10851 10849 10847 10845 10842 10841 10839 10837 10835 10833 10832 10832 10828 10823 10819 10816 10813 10810 10807 10804 10801 10798 10795 10791 10788 10785 10782 10780 10775 10770 10767 10763 10758 10754 10750 10745 10740 10736 10730 10725 10720 10717 10713 10710 10707 10703 10699 10695
10815 10820 10824 10825 10827 10829 10829 10832 10836 10835 10836 10840 10843 10845 10847 10847 10847 10850 10850 10847 10848 10851 10852 10852 10853 10855 10856 10855 10855 10857 10857 10854 10849 10848 10851 10850 10845 10845 10846 10843 10841 10839 10835 10833 10832 10829 10826 10824 10822 10822 10820 10816 10812 10808 10805 10801 10797 10794 10790 10787 10784 10781 10778 10775 10772 10770 10766 10761 10758 10755 10750 10746 10743 10738 10733 10728 10722 10716 10711 10708 10705 10703 10700 10695 10691 10688
10804 10809 10812 10814 10819 10824 10823 10824 10827 10827 10829 10835 10837 10836 10835 10835 10837 10844 10846 10840 10838 10841 10844 10845 10847 10850 10849 10845 10844 10848 10849 10846 10841 10842 10847 10844 10838 10839 10839 10835 10834 10832 10829 10827 10825 10822 10820 10817 10814 10812 10809 10807 10804 10801 10797 10793 10789 10785 10781 10777 10775 10772 10768 10766 10763 10760 10757 10753 10749 10746 10742 10738 10734 10730 10725 10720 10715 10709 10703 10699 10696 10694 10692 10687 10683 10681
10794 10797 10802 10806 10811 10816 10816 10816 10818 10819 10822 10826 10826 10825 10826 10826 10829 10838 10840 10831 10828 10833 10838 10838 10839 10841 10839 10836 10837 10839 10839 10837 10834 10836 10840 10837 10833 10834 10832 10828 10827 10825 10822 10821 10818 10815 10813 10811 10807 10805 10802 10799 10796 10793 10789 10785 10781 10778 10773 10769 10765 10761 10759 10758 10755 10751 10748 10745 10741 10737 10733 10728 10725 10720 10715 10711 10707 10702 10698 10692 10687 10684 10683 10680 10676 10673
10784 10788 10794 10799 10802 10804 10807 10809 10809 10809 10811 10813 10814 10815 10818 10819 10821 10828 10831 10824 10821 10826 10830 10830 10831 10830 10828 10828 10831 10831 10830 10829 10828 10828 10831 10830 10828 10827 10825 10821 10820 10818 10816 10814 10812 10809 10807 10803 10800 10798 10795 10792 10789 10786 10782 10778 10774 10770 10766 10762 10758 10753 10749 10747 10746 10742 10738 10734 10730 10726 10722 10719 10716 10711 10707 10702 10698 10694 10692 10687 10681 10677 10675 10672 10668 10665
10777 10781 10786 10791 10793 10794 10797 10800 10801 10799 10798 10801 10804 10805 10808 10812 10815 10819 10821 10818 10816 10818 10820 10821 10822 10820 10818 10820 10822 10822 10822 10823 10822 10820 10821 10823 10822 10820 10818 10814 10811 10810 10808 10807 10805 10802 10800 10796 10793 10791 10788 10785 10782 10779 10775 10772 10767 10763 10759 10755 10752 10747 10742 10739 10736 10734 10729 10725 10721 10717 10713 10710 10708 10704 10700 10695 10690 10687 10685 10681 10675 10671 10669 10666 10662 10658
10769 10773 10777 10782 10785 10787 10788 10790 10792 10789 10784 10788 10796 10797 10799 10804 10807 10810 10813 10812 10808 10807 10810 10814 10814 10810 10809 10811 10812 10812 10812 10814 10814 10812 10812 10814 10814 10813 10810 10805 10803 10801 10800 10798 10797 10795 10792 10788 10785 10784 10782 10778 10775 10771 10768 10764 10760 10754 10750 10747 10745 10742 10737 10731 10727 10725 10721 10717 10713 10709 10707 10703 10699 10696 10693 10689 10684 10681 10679 10674 10668 10664 10661 10658 10655 10651
10761 10764 10768 10773 10777 10779 10777 10776 10778 10777 10776 10782 10789 10791 10793 10796 10798 10801 10804 10803 10800 10799 10801 10806 10807 10803 10801 10801 10802 10804 10803 10803 10804 10805 10804 10805 10807 10805 10800 10796 10794 10793 10792 10790 10788 10786 10783 10780 10778 10776 10775 10771 10768 10764 10760 10756 10752 10747 10741 10737 10736 10734 10730 10724 10719 10715 10712 10710 10705 10702 10699 10695 10690 10688 10685 10680 10677 10675 10672 10667 10661 10656 10653 10649 10646 10643
10752 10754 10759 10766 10769 10768 10765 10764 10768 10772 10775 10779 10781 10782 10786 10789 10790 10792 10793 10794 10795 10793 10791 10794 10797 10796 10795 10792 10792 10795 10795 10793 10795 10796 10796 10798 10799 10796 10790 10787 10786 10785 10783 10782 10780 10777 10774 10773 10770 10768 10766 10764 10761 10757 10751 10747 10744 10740 10734 10729 10726 10725 10723 10720 10714 10709 10705 10702 10698 10694 10692 10688 10683 10681 10678 10672 10669 10667 10664 10659 10655 10649 10645 10641 10638 10634
10743 10746 10751 10756 10756 10755 10757 10759 10761 10765 10769 10771 10771 10773 10776 10780 10782 10784 10784 10784 10786 10785 10783 10784 10786 10786 10787 10786 10785 10787 10787 10784 10785 10787 10788 10789 10788 10785 10782 10779 10777 10775 10774 10772 10771 10767 10766 10766 10763 10759 10757 10755 10752 10749 10744 10739 10736 10733 10730 10726 10721 10718 10716 10713 10708 10703 10698 10695 10691 10688 10686 10682 10678 10675 10671 10665 10662 10659 10655 10652 10648 10643 10637 10633 10629 10626
10734 10738 10740 10739 10741 10747 10752 10751 10751 10755 10757 10760 10764 10764 10765 10771 10776 10777 10774 10773 10774 10775 10775 10775 10776 10777 10778 10778 10777 10778 10778 10776 10776 10778 10778 10777 10776 10775 10773 10771 10768 10765 10762 10760 10759 10757 10757 10757 10754 10750 10748 10746 10742 10738 10735 10731 10726 10724 10723 10721 10716 10711 10707 10704 10700 10695 10689 10685 10683 10680 10677 10674 10671 10668 10664 10658 10655 10651 10646 10642 10639 10635 10630 10624 10620 10617
10723 10728 10727 10726 10731 10740 10743 10741 10743 10747 10748 10750 10754 10755 10757 10762 10767 10767 10765 10763 10764 10765 10764 10765 10768 10769 10769 10769 10769 10769 10770 10768 10768 10769 10768 10766 10766 10766 10764 10761 10757 10755 10752 10749 10747 10746 10745 10745 10743 10740 10738 10736 10732 10728 10725 10722 10718 10715 10712 10710 10706 10702 10698 10693 10689 10685 10679 10675 10671 10669 10666 10663 10660 10658 10654 10650 10647 10642 10636 10631 10627 10626 10623 10616 10610 10607
10715 10719 10717 10717 10722 10727 10730 10732 10737 10740 10738 10737 10741 10748 10754 10755 10754 10755 10756 10754 10754 10755 10756 10758 10760 10759 10759 10760 10759 10760 10761 10759 10759 10760 10759 10756 10756 10757 10755 10750 10745 10743 10742 10739 10737 10735 10734 10733 10733 10730 10727 10726 10724 10720 10717 10714 10711 10706 10702 10700 10696 10691 10687 10683 10678 10673 10668 10664 10662 10660 10657 10653 10649 10646 10642 10638 10635 10632 10628 10621 10616 10614 10614 10610 10603 10598
10708 10709 10705 10706 10711 10716 10719 10725 10731 10732 10728 10727 10734 10744 10748 10744 10739 10742 10745 10745 10746 10748 10748 10750 10750 10749 10749 10750 10750 10751 10752 10749 10750 10751 10749 10747 10748 10748 10743 10738 10735 10733 10732 10731 10728 10726 10723 10722 10720 10718 10715 10714 10713 10711 10707 10703 10698 10692 10689 10689 10687 10680 10675 10672 10668 10662 10656 10653 10652 10651 10648 10643 10639 10636 10632 10628 10624 10621 10618 10613 10606 10602 10602 10599 10594 10590
10697 10697 10694 10698 10705 10707 10710 10717 10724 10723 10716 10717 10727 10735 10735 10730 10729 10733 10735 10736 10738 10738 10738 10739 10740 10741 10742 10741 10741 10743 10744 10741 10740 10738 10737 10741 10745 10741 10732 10726 10725 10724 10722 10721 10720 10718 10715 10712 10709 10706 10703 10701 10699 10698 10695 10691 10687 10680 10675 10675 10674 10669 10664 10661 10657 10651 10646 10642 10641 10641 10637 10631 10627 10624 10621 10619 10614 10610 10607 10604 10598 10592 10590 10588 10584 10579
10685 10690 10692 10695 10696 10695 10699 10710 10716 10713 10707 10707 10715 10722 10723 10721 10722 10725 10725 10725 10726 10726 10727 10729 10731 10733 10734 10733 10733 10738 10740 10737 10731 10724 10724 10733 10737 10731 10723 10718 10716 10714 10713 10711 10709 10708 10705 10701 10698 10695 10692 10688 10685 10683 10680 10677 10675 10670 10664 10661 10661 10657 10653 10650 10647 10641 10636 10632 10630 10630 10626 10620 10617 10613 10610 10608 10604 10599 10595 10593 10589 10584 10580 10578 10574 10569